Location: Unspecified
(0.0000°N, 0.0000°E)
Time: 19:47:14
(UTC+00:00)

deb Briz - Pass Details

Date: 15 February 2026
Orbit: 1683 x 2323 km, 64.7° (Epoch: 11 March)

Event Time Altitude Azimuth Distance (km) Brightness Sun altitude
Rises 18:49:07 0° 200° (SSW) 5,569 ? -8.5°
Reaches altitude 10° 18:52:24 10° 199° (SSW) 4,636 ? -9.3°
Maximum altitude 19:04:54 85° 110° (ESE) 2,281 ? -12.4°
Drops below altitude 10° 19:18:11 10° 23° (NNE) 4,899 ? -15.6°
Sets 19:21:45 0° 23° (NNE) 5,893 ? -16.5°
